FW5692 Weather Reports


time (UTC)temp
C
wind
direction
speed
KPH
gust
KPH
rain 1hr
cm
rain 24hr
cm
rain mn
cm
humidity
%
barometer
mb
20260505060418 19 164 0.0 0.0 0.00 0.00 0.00 92 1019.9
20260505055921 19 164 0.0 0.0 0.00 0.00 0.00 92 1020.0
20260505055641 20 164 0.0 0.0 0.00 0.00 0.00 92 1020.0
20260505054936 20 164 0.0 0.0 0.00 0.00 0.00 92 1020.0
20260505054417 20 164 0.0 0.0 0.00 0.00 0.00 92 1020.0
20260505053913 20 164 0.0 0.0 0.00 0.00 0.00 92 1020.1
20260505053645 20 164 0.0 0.0 0.00 0.00 0.00 92 1020.2
20260505052933 20 164 0.0 0.0 0.00 0.00 0.00 92 1020.3
20260505052419 20 164 0.0 0.0 0.00 0.00 0.00 92 1020.3
20260505051908 20 164 0.0 0.0 0.00 0.00 0.00 92 1020.3
20260505051640 20 164 0.0 0.0 0.00 0.00 0.00 92 1020.3
20260505050918 20 164 0.0 0.0 0.00 0.00 0.00 92 1020.3
20260505050850 20 164 0.0 0.0 0.00 0.00 0.00 92 1020.5
20260505041345 20 188 0.0 0.0 0.00 0.00 0.00 93 1020.6
20260505040856 20 188 0.0 0.0 0.00 0.00 0.00 93 1020.5
20260505040348 20 188 0.0 0.0 0.00 0.00 0.00 93 1020.5
20260505035840 20 188 0.0 0.0 0.00 0.00 0.00 93 1020.6
20260505035334 20 188 0.0 0.0 0.00 0.00 0.00 93 1020.5
20260505035056 20 188 0.0 0.0 0.00 0.00 0.00 93 1020.6
20260505034338 20 188 0.0 0.0 0.00 0.00 0.00 93 1020.6
20260505033828 20 188 0.0 0.0 0.00 0.00 0.00 93 1020.6
20260505033327 20 188 0.0 0.0 0.00 0.00 0.00 93 1020.6
20260505032829 20 188 0.0 0.0 0.00 0.00 0.00 93 1020.5
20260505032322 20 188 0.0 0.0 0.00 0.00 0.00 94 1020.5
20260505031828 19 188 0.0 0.0 0.00 0.00 0.00 94 1020.6
20260505031327 19 189 0.0 0.0 0.00 0.00 0.00 94 1020.6
20260505030820 19 81 0.0 0.0 0.00 0.00 0.00 94 1020.7
20260505030324 19 81 0.0 0.0 0.00 0.00 0.00 94 1020.6
20260505025840 19 81 0.0 0.0 0.00 0.00 0.00 94 1020.5
20260505025334 19 82 0.0 0.0 0.00 0.00 0.00 94 1020.6
20260505024830 19 82 0.0 0.0 0.00 0.00 0.00 94 1020.7
20260505024320 19 82 0.0 0.0 0.00 0.00 0.00 94 1020.6
20260505023829 19 81 0.0 0.0 0.00 0.00 0.00 94 1020.7
20260505023327 19 81 0.0 3.2 0.00 0.00 0.00 94 1020.6
20260505022830 19 77 1.6 4.8 0.00 0.00 0.00 94 1020.5
20260505022322 19 77 1.6 4.8 0.00 0.00 0.00 94 1020.5
20260505021819 19 83 0.0 3.2 0.00 0.00 0.00 94 1020.6
20260505021314 19 88 0.0 0.0 0.00 0.00 0.00 94 1020.6
20260505020814 19 88 0.0 0.0 0.00 0.00 0.00 94 1020.6
20260505020313 19 88 0.0 0.0 0.00 0.00 0.00 94 1020.6
20260505020048 19 87 0.0 0.0 0.00 0.00 0.00 94 1020.6
20260505015317 19 87 0.0 0.0 0.00 0.00 0.00 94 1020.6
20260505015028 19 87 0.0 0.0 0.00 0.00 0.00 94 1020.5
20260505013808 19 86 0.0 0.0 0.00 0.00 0.00 94 1020.4
20260505013304 19 87 0.0 0.0 0.00 0.00 0.00 94 1020.5
20260505012747 19 88 0.0 0.0 0.00 0.00 0.00 94 1020.4
20260505012240 20 83 0.0 0.0 0.00 0.00 0.00 94 1020.5
20260505011735 20 83 0.0 0.0 0.00 0.00 0.00 94 1020.5
20260505011244 20 83 0.0 4.8 0.00 0.00 0.00 94 1020.5
20260505010729 20 83 0.0 4.8 0.00 0.00 0.00 94 1020.5
20260505010221 20 103 0.0 0.0 0.00 0.00 0.00 94 1020.5
20260505005709 20 103 0.0 0.0 0.00 0.00 0.00 94 1020.5
20260505005216 20 103 0.0 3.2 0.00 0.00 0.00 94 1020.3
20260505004704 20 103 0.0 3.2 0.00 0.00 0.00 94 1020.3
20260505004159 20 101 0.0 0.0 0.00 0.00 0.00 94 1020.4
20260505003910 20 101 0.0 0.0 0.00 0.00 0.00 94 1020.3
20260505003140 20 101 0.0 0.0 0.00 0.00 0.00 94 1020.3
20260505002634 20 101 0.0 0.0 0.00 0.00 0.00 94 1020.4
20260505002128 20 101 0.0 0.0 0.00 0.00 0.00 94 1020.5
20260505001628 20 101 0.0 0.0 0.00 0.00 0.00 94 1020.3
20260505001126 20 103 0.0 0.0 0.00 0.00 0.00 94 1020.3
20260505000833 20 103 0.0 0.0 0.00 0.00 0.00 94 1020.3
20260505000115 20 122 0.0 1.6 0.00 0.00 0.00 94 1020.4
20260504235600 20 124 0.0 1.6 0.00 0.00 0.00 94 1020.4
20260504235112 20 122 0.0 1.6 0.00 0.00 0.00 94 1020.3
20260504234547 20 122 0.0 3.2 0.00 0.00 0.00 94 1020.4
20260504234317 20 123 1.6 3.2 0.00 0.00 0.00 94 1020.3
20260504233534 20 123 1.6 3.2 0.00 0.00 0.00 94 1020.2
20260504233036 20 83 1.6 4.8 0.00 0.00 0.00 94 1020.2
20260504232533 20 82 1.6 4.8 0.00 0.00 0.00 94 1020.2
20260504232235 20 79 0.0 0.0 0.00 0.00 0.00 94 1020.2
20260504231522 20 79 0.0 3.2 0.00 0.00 0.00 94 1020.2
20260504231010 20 79 0.0 3.2 0.00 0.00 0.00 94 1020.2
20260504230458 20 79 0.0 4.8 0.00 0.00 0.00 94 1020.2
20260504225951 20 71 1.6 4.8 0.00 0.00 0.00 94 1020.1
20260504225448 20 70 1.6 4.8 0.00 0.00 0.00 94 1020.0
20260504224941 20 99 1.6 4.8 0.00 0.00 0.00 94 1020.1
20260504224434 20 58 3.2 6.4 0.00 0.00 0.00 94 1020.0
20260504223934 20 73 3.2 6.4 0.00 0.00 0.00 93 1020.0
20260504223428 20 65 1.6 6.4 0.00 0.00 0.00 93 1019.8
20260504222930 20 92 1.6 6.4 0.00 0.00 0.00 93 1019.8
20260504222410 20 105 1.6 4.8 0.00 0.00 0.00 93 1019.9
20260504221903 20 84 1.6 6.4 0.00 0.00 0.00 92 1019.9
20260504221359 20 58 1.6 6.4 0.00 0.00 0.00 92 1019.9
20260504220856 20 72 0.0 4.8 0.00 0.00 0.00 92 1019.9
20260504220353 20 81 0.0 4.8 0.00 0.00 0.00 91 1019.7
20260504215844 20 78 1.6 4.8 0.00 0.00 0.00 91 1020.0
20260504215609 20 86 1.6 4.8 0.00 0.00 0.00 91 1019.9
20260504214827 20 86 3.2 6.4 0.00 0.00 0.00 91 1019.9
20260504214321 20 75 3.2 6.4 0.00 0.00 0.00 90 1019.7
20260504213821 20 69 3.2 6.4 0.00 0.00 0.00 90 1019.9
20260504213312 20 75 3.2 6.4 0.00 0.00 0.00 90 1019.8
20260504213034 21 79 3.2 8.0 0.00 0.00 0.00 90 1019.8
20260504212313 20 94 1.6 8.0 0.00 0.00 0.00 89 1019.8
20260504211823 20 109 1.6 4.8 0.00 0.00 0.00 90 1019.8
20260504211317 20 91 1.6 4.8 0.00 0.00 0.00 90 1019.8
20260504210812 20 110 1.6 4.8 0.00 0.00 0.00 90 1019.8
20260504210424 20 90 1.6 4.8 0.00 0.00 0.00 89 1019.7
20260504210344 20 109 1.6 4.8 0.00 0.00 0.00 90 1019.7
20260504205332 20 96 1.6 4.8 0.00 0.00 0.00 89 1019.6
20260504204812 20 128 1.6 4.8 0.00 0.00 0.00 89 1019.8
20260504204317 20 120 1.6 6.4 0.00 0.00 0.00 89 1019.6
20260504203817 21 93 3.2 6.4 0.00 0.00 0.00 89 1019.5
20260504203312 21 46 4.8 9.7 0.00 0.00 0.00 89 1019.5
20260504203053 21 51 4.8 9.7 0.00 0.00 0.00 89 1019.4
20260504202322 21 75 4.8 12.9 0.00 0.00 0.00 88 1019.3
20260504202040 21 54 6.4 16.1 0.00 0.00 0.00 88 1019.3
20260504201317 21 34 8.0 17.7 0.00 0.00 0.00 87 1019.2
20260504200810 21 13 8.0 17.7 0.00 0.00 0.00 87 1019.4
20260504200310 21 324 6.4 16.1 0.00 0.00 0.00 85 1019.2
20260504195815 21 37 4.8 14.5 0.00 0.00 0.00 84 1019.3
20260504195310 21 32 6.4 17.7 0.00 0.00 0.00 83 1019.2
20260504194824 21 349 6.4 17.7 0.00 0.00 0.00 83 1019.1
20260504194311 22 236 8.0 20.9 0.00 0.00 0.00 83 1019.2
20260504193821 22 339 11.3 20.9 0.00 0.00 0.00 82 1019.2
20260504193532 22 338 11.3 24.1 0.00 0.00 0.00 82 1019.1
20260504192814 22 319 11.3 24.1 0.00 0.00 0.00 80 1019.1
20260504192315 22 20 11.3 24.1 0.00 0.00 0.00 79 1019.1
20260504191816 23 188 14.5 32.2 0.00 0.00 0.00 78 1019.2
20260504191309 23 352 12.9 32.2 0.00 0.00 0.00 77 1019.2
20260504190809 24 336 8.0 19.3 0.00 0.00 0.00 73 1019.1
20260504190309 24 322 6.4 17.7 0.00 0.00 0.00 72 1019.0
20260504190049 24 300 6.4 14.5 0.00 0.00 0.00 71 1018.9
20260504185310 24 338 4.8 12.9 0.00 0.00 0.00 71 1019.0
20260504184817 25 60 3.2 11.3 0.00 0.00 0.00 70 1018.9
20260504184533 25 325 3.2 9.7 0.00 0.00 0.00 70 1018.9
20260504183804 25 245 3.2 9.7 0.00 0.00 0.00 70 1019.0
20260504183305 25 312 3.2 9.7 0.00 0.00 0.00 69 1018.9
20260504182800 25 182 3.2 9.7 0.00 0.00 0.00 69 1018.9
20260504182259 25 347 6.4 14.5 0.00 0.00 0.00 69 1018.8
20260504181800 25 353 6.4 17.7 0.00 0.00 0.00 68 1018.8
20260504181259 25 324 6.4 17.7 0.00 0.00 0.00 68 1018.7
20260504181019 25 336 4.8 11.3 0.00 0.00 0.00 67 1018.7
20260504180305 25 298 3.2 9.7 0.00 0.00 0.00 67 1018.6
20260504175756 25 85 4.8 11.3 0.00 0.00 0.00 68 1018.5
20260504175256 25 341 8.0 14.5 0.00 0.00 0.00 68 1018.7
20260504175019 25 315 6.4 14.5 0.00 0.00 0.00 67 1018.8
20260504174256 25 326 6.4 14.5 0.00 0.00 0.00 67 1018.9
20260504173756 25 105 6.4 16.1 0.00 0.00 0.00 67 1018.9
20260504173255 26 96 4.8 16.1 0.00 0.00 0.00 66 1018.8
20260504172800 26 347 4.8 16.1 0.00 0.00 0.00 67 1018.8
20260504172256 26 332 4.8 11.3 0.00 0.00 0.00 67 1019.0
20260504171751 26 122 3.2 11.3 0.00 0.00 0.00 67 1019.0
20260504171257 26 72 1.6 6.4 0.00 0.00 0.00 67 1019.1
20260504170806 26 275 4.8 17.7 0.00 0.00 0.00 67 1019.1
20260504170252 25 297 6.4 17.7 0.00 0.00 0.00 67 1019.3
20260504160239 24 110 1.6 6.4 0.00 0.00 0.00 67 1019.8
20260504151136 23 258 1.6 6.4 0.00 0.00 0.00 66 1020.8
20260504150637 23 191 1.6 4.8 0.00 0.00 0.00 67 1020.9
20260504150124 22 73 1.6 8.0 0.00 0.00 0.00 68 1020.9
20260504141214 20 137 0.0 4.8 0.00 0.00 0.00 72 1021.4
20260504140721 20 0.0 0.0 0.00 0.00 0.00 74 1021.6
20260504140224 19 0.0 0.0 0.00 0.00 0.00 73 1021.7
20260504130215 16 37 1.6 8.0 0.00 0.00 0.00 81 1022.4
20260504110625 11 116 1.6 4.8 0.00 0.00 0.00 89 1021.8
20260504110113 11 125 1.6 4.8 0.00 0.00 0.00 90 1021.7
20260504100516 10 122 0.0 1.6 0.00 0.00 0.00 91 1022.1
20260504081853 10 141 0.0 0.0 0.00 0.00 0.00 90 1021.8
20260504081348 10 141 0.0 0.0 0.00 0.00 0.00 91 1021.5
20260504080852 10 141 0.0 1.6 0.00 0.00 0.00 91 1021.4
20260504080605 10 141 0.0 1.6 0.00 0.00 0.00 91 1021.4
20260504070327 10 153 0.0 0.0 0.00 0.00 0.00 91 1021.5